Flag Weather past 2 weeks in West Palm Beach, Florida, U.S.A.

Now
81 °F

Partly cloudy.


Feels Like: 86 °F
Forecast: 74 / 82 °F
Wind: 10 mph from South

Location: Palm Beach International Airport

Current Time: Nov 25, 2014 at 6:49:57 PM

Latest Report: Nov 25, 2014 at 5:53 PM


Visibility: 10 mi

Pressure: 29.93 "Hg

Humidity: 79%

Dew point: 74 °F

Location of West Palm BeachLocation

Historic Weather in West Palm Beach — Graph

°F

West Palm Beach temperature yesterday

Maximum temperature yesterday: 87 °F (at 10:53 AM)
Minimum temperature yesterday: 77 °F (at 6:53 AM)
Average temperature yesterday: 82 °F

Past Weeks' High & Low Weather Summary

 TemperatureHumidityPressure
High88 °F (Nov 17, 1:53 PM)97% (Nov 14, 2:53 AM)30.24 "Hg (Nov 14, 2:53 AM)
Low54 °F (Nov 19, 12:53 AM)41% (Nov 14, 12:53 PM)29.86 "Hg (Nov 11, 1:53 PM)
Average74 °F76%30.05 "Hg
* Reported Nov 10 5:53 PM — Nov 25 5:53 PM, West Palm Beach, Weather by CustomWeather, © 2014

Note: Actual official high and low records may vary slightly from our data, if they occured in-between our weather recording intervals... More about our weather records

Advertising

West Palm Beach weather history for previous 24 hours

 ConditionsComfort  
Time TempWeatherWind HumidityBarometerVisibility
5:53 PM
Nov 25
81 °FPartly cloudy.10 mph79%29.93 "Hg10 mi
4:53 PM82 °FBroken clouds.16 mph74%29.92 "Hg10 mi
3:53 PM83 °FBroken clouds.18 mph72%29.91 "Hg10 mi
2:53 PM83 °FBroken clouds.17 mph72%29.91 "Hg10 mi
1:53 PM84 °FBroken clouds.16 mph67%29.93 "Hg10 mi
12:53 PM83 °FBroken clouds.25 mph70%29.95 "Hg10 mi
11:53 AM84 °FBroken clouds.25 mph67%29.98 "Hg10 mi
10:53 AM84 °FBroken clouds.22 mph70%30.01 "Hg10 mi
9:53 AM82 °FBroken clouds.21 mph72%30.03 "Hg10 mi
8:53 AM81 °FBroken clouds.17 mph77%30.03 "Hg10 mi
7:53 AM80 °FBroken clouds.16 mph85%30.02 "Hg10 mi
6:53 AM79 °FBroken clouds.14 mph88%30.01 "Hg10 mi
5:53 AM79 °FPassing clouds.12 mph88%30.01 "Hg10 mi
4:53 AM79 °FPassing clouds.10 mph88%30.00 "Hg10 mi
3:53 AM80 °FPassing clouds.10 mph87%30.00 "Hg10 mi
2:53 AM80 °FPassing clouds.9 mph87%30.01 "Hg10 mi
1:53 AM80 °FPassing clouds.9 mph87%30.01 "Hg10 mi
1:03 AM80 °FPassing clouds.8 mph90%30.02 "Hg10 mi
12:53 AM80 °FPassing clouds.8 mph90%30.02 "Hg10 mi
11:53 PM
Nov 24
80 °FPassing clouds.6 mph90%30.03 "Hg10 mi
10:53 PM80 °FPassing clouds.9 mph90%30.03 "Hg10 mi
9:53 PM80 °FPassing clouds.9 mph90%30.03 "Hg10 mi
8:53 PM80 °FPartly cloudy.9 mph90%30.01 "Hg10 mi
7:53 PM81 °FPassing clouds.9 mph88%30.00 "Hg10 mi
6:53 PM81 °FPassing clouds.10 mph85%29.98 "Hg10 mi
Weather by CustomWeather, © 2014

See weather overviewHow to use our weather pages